Monroe, LA

2:07 PM CDT on May 21, 2018 (GMT -0500)
Monroe Regional

Weather History for KMLU - May, 2013

Change the Weather History Date:

Thursday, May 30, 2013

  Actual Average Record
Temperature  
Mean Temperature 81 °F 78 °F  
Max Temperature 89 °F 89 °F 98 °F (1977)
Min Temperature 73 °F 67 °F 50 °F (1984)
Degree Days  
Heating Degree Days 0 0  
Month to date heating degree days 41 3  
Since 1 July heating degree days 2205 2227  
Cooling Degree Days 16 13  
Month to date cooling degree days 228 276  
Year to date cooling degree days 333 423  
Growing Degree Days 30 (Base 50)    
Moisture  
Dew Point 71 °F    
Average Humidity 74    
Maximum Humidity 93    
Minimum Humidity 55    
Precipitation  
Precipitation 0.03 in 0.16 in 1.62 in (1968)
Month to date precipitation 3.35 5.03  
Year to date precipitation 25.01 23.89  
Snow  
Snow 0.00 in - - ()
Month to date snowfall 0.0  
Since 1 July snowfall 0.3  
Snow Depth 0.00 in    
Sea Level Pressure  
Sea Level Pressure 29.93 in    
Wind  
Wind Speed 9 mph (SSE)    
Max Wind Speed 17 mph    
Max Gust Speed 24 mph    
Visibility 10 miles    
Events Rain    
T = Trace of Precipitation, MM = Missing Value Source: NWS Daily Summary

Daily Weather History Graph

Daily Weather History Graph

Search for Another Location

Airport or City:

Astronomy

May. 30, 2013 Rise Set
Actual Time 6:02 AM CDT 8:09 PM CDT
Civil Twilight 5:34 AM CDT 8:37 PM CDT
Nautical Twilight 5:00 AM CDT 9:11 PM CDT
Astronomical Twilight 4:23 AM CDT 9:48 PM CDT
Moon 12:22 AM CDT (5/30) 11:57 AM CDT (5/30)
Length of Visible Light 15h 03m
Length of Day
14h 07m
Waning Gibbous, 62% of the Moon is Illuminated
May 30
Waning Gibbous
May 31
Last Quarter
Jun 8
New
Jun 16
First Quarter
Jun 23
Full

Hourly Weather History & Observations

Time (CDT) Temp. Heat Index Dew Point Humidity Pressure Visibility Wind Dir Wind Speed Gust Speed Precip Events Conditions
12:53 AM 75.9 °F - 70.0 °F 82% 29.94 in 10.0 mi SSE 4.6 mph - N/A   Mostly Cloudy
1:46 AM 75.2 °F - 71.6 °F 89% 29.94 in 10.0 mi South 10.4 mph 16.1 mph N/A   Mostly Cloudy
1:53 AM 75.9 °F - 71.1 °F 85% 29.93 in 10.0 mi SSE 10.4 mph 17.3 mph N/A   Overcast
2:22 AM 75.2 °F - 71.6 °F 89% 29.93 in 10.0 mi SSE 10.4 mph - N/A   Mostly Cloudy
2:53 AM 75.0 °F - 71.1 °F 87% 29.92 in 10.0 mi South 8.1 mph - N/A   Partly Cloudy
3:28 AM 75.2 °F - 71.6 °F 89% 29.92 in 10.0 mi SSE 5.8 mph - N/A   Mostly Cloudy
3:38 AM 75.2 °F - 71.6 °F 89% 29.92 in 10.0 mi SSE 9.2 mph - N/A   Scattered Clouds
3:46 AM 75.2 °F - 71.6 °F 89% 29.92 in 10.0 mi SSE 8.1 mph - N/A   Mostly Cloudy
3:53 AM 75.0 °F - 71.1 °F 87% 29.92 in 10.0 mi SSE 6.9 mph - N/A   Scattered Clouds
4:28 AM 75.2 °F - 71.6 °F 89% 29.92 in 10.0 mi SSE 5.8 mph - N/A   Mostly Cloudy
4:43 AM 73.4 °F - 71.6 °F 94% 29.93 in 10.0 mi South 6.9 mph - N/A   Scattered Clouds
4:53 AM 73.9 °F - 71.1 °F 91% 29.92 in 10.0 mi SSE 3.5 mph - N/A   Partly Cloudy
5:31 AM 73.4 °F - 71.6 °F 94% 29.93 in 10.0 mi Calm Calm - N/A   Mostly Cloudy
5:53 AM 73.9 °F - 71.1 °F 91% 29.94 in 9.0 mi SSE 4.6 mph - N/A   Overcast
6:41 AM 73.4 °F - 71.6 °F 94% 29.95 in 8.0 mi SSE 3.5 mph - N/A   Partly Cloudy
6:53 AM 75.0 °F - 71.1 °F 87% 29.95 in 8.0 mi SSE 5.8 mph - N/A   Partly Cloudy
7:53 AM 75.9 °F - 72.0 °F 87% 29.96 in 10.0 mi SSE 6.9 mph - N/A   Scattered Clouds
8:04 AM 77.0 °F - 71.6 °F 83% 29.96 in 10.0 mi SSE 6.9 mph - N/A   Mostly Cloudy
8:20 AM 78.8 °F - 71.6 °F 78% 29.97 in 10.0 mi SSE 11.5 mph 18.4 mph N/A   Mostly Cloudy
8:53 AM 79.0 °F - 72.0 °F 79% 29.97 in 10.0 mi SSE 9.2 mph 16.1 mph N/A   Mostly Cloudy
9:53 AM 82.0 °F 86.7 °F 72.0 °F 71% 29.97 in 10.0 mi South 13.8 mph 21.9 mph N/A   Scattered Clouds
10:53 AM 84.0 °F 89.0 °F 71.1 °F 65% 29.97 in 10.0 mi SSE 13.8 mph 19.6 mph N/A   Mostly Cloudy
11:18 AM 84.2 °F 89.6 °F 71.6 °F 66% 29.96 in 10.0 mi South 11.5 mph 24.2 mph N/A   Mostly Cloudy
11:53 AM 84.9 °F 90.1 °F 71.1 °F 63% 29.97 in 10.0 mi South 12.7 mph 19.6 mph N/A   Mostly Cloudy
12:00 PM 84.2 °F 88.4 °F 69.8 °F 62% 29.97 in 10.0 mi SE 11.5 mph 19.6 mph N/A   Mostly Cloudy
12:53 PM 86.0 °F 90.7 °F 70.0 °F 59% 29.95 in 10.0 mi SSE 12.7 mph 19.6 mph N/A   Mostly Cloudy
1:53 PM 86.0 °F 91.5 °F 71.1 °F 61% 29.92 in 10.0 mi SSE 8.1 mph - 0.01 in   Mostly Cloudy
2:53 PM 87.1 °F 91.3 °F 69.1 °F 55% 29.89 in 10.0 mi SSE 10.4 mph 21.9 mph N/A   Mostly Cloudy
3:53 PM 86.0 °F 90.7 °F 70.0 °F 59% 29.87 in 10.0 mi SSE 9.2 mph - N/A   Clear
4:53 PM 88.0 °F 92.9 °F 70.0 °F 55% 29.86 in 10.0 mi South 11.5 mph 17.3 mph N/A   Partly Cloudy
5:53 PM 80.1 °F 83.6 °F 71.1 °F 74% 29.87 in 6.0 mi SSE 11.5 mph 21.9 mph 0.02 in Rain Light Rain
6:53 PM 80.1 °F 83.8 °F 72.0 °F 76% 29.86 in 10.0 mi South 8.1 mph - 0.00 in   Clear
7:53 PM 81.0 °F 84.9 °F 71.1 °F 72% 29.88 in 10.0 mi SSE 5.8 mph - N/A   Clear
8:53 PM 80.1 °F 83.6 °F 71.1 °F 74% 29.92 in 10.0 mi SE 4.6 mph - N/A   Overcast
9:53 PM 79.0 °F - 71.1 °F 77% 29.92 in 10.0 mi SSE 6.9 mph - N/A   Scattered Clouds
10:53 PM 79.0 °F - 72.0 °F 79% 29.93 in 10.0 mi SSE 11.5 mph 19.6 mph N/A   Partly Cloudy
11:53 PM 78.1 °F - 72.0 °F 81% 29.93 in 10.0 mi SSE 9.2 mph 17.3 mph N/A   Clear